Location: *
(32.8140°S, 174.6161°E)
Time: 06:28:44
(UTC+00:00)

Atlas Centaur 2 - Pass Details

Date: 10 December 2019
Orbit: 459 x 1310 km, 30.4° (Epoch: 23 January)

Event Time Altitude Azimuth Distance (km) Brightness Sun altitude
Exits shadow 13:32:13 18° 82° (E) 1,865 4.1 -31.2°
Drops below altitude 10° 13:33:27 10° 88° (E) 2,277 4.6 -31.2°
Sets 13:35:42 0° 93° (E) 3,078 5.4 -31.0°
